Powrót do katalogu

METHANESAT

AktywnyNaukaSSO
NORAD 59101·PAYLOAD·🇺🇸 United States

Wystrzelony Mar 4, 2024 z Vandenberg Space Force Base

Loading…

Następne Przeloty (najbliższe 24 godziny)

TLE

ŚwieżeSource: Space-Track

Epoka: Sep 14, 2026, 14:49 UTC

1 59101U 24043D   26257.61803352  .00001219  00000-0  10707-3 0  9990
2 59101  97.8566  29.1864 0011058  71.0342 289.2077 14.98440798138046

Śledź METHANESAT w czasie rzeczywistym z AllMySat

Download on the App Store